This is the latest recevied weather packets stored in our database for station/object KI2K. If no packets are shown the sender has not sent any weather packets the latest 10 day(s).
| Time | Temp. | Humidity | Pressure | Rain* | Wind** | Luminosity | Snow |
|---|---|---|---|---|---|---|---|
| 1778045713 | 7.78° C | 99% | 1009.5 hPa | 0 mm | - | 0 W/m² | - |
| 1778045411 | 7.78° C | 99% | 1009.4 hPa | 0 mm | - | 0 W/m² | - |
| 1778045110 | 7.78° C | 99% | 1009.1 hPa | 0 mm | - | 0 W/m² | - |
| 1778044807 | 7.78° C | 99% | 1009.5 hPa | 0 mm | - | 0 W/m² | - |
| 1778044503 | 7.78° C | 99% | 1009.3 hPa | 0 mm | - | 0 W/m² | - |
| 1778044200 | 7.78° C | 99% | 1009.3 hPa | 1.78 mm | - | 0 W/m² | - |
| 1778043898 | 7.78° C | 99% | 1009.5 hPa | 1.78 mm | - | 0 W/m² | - |
| 1778043595 | 7.78° C | 99% | 1009.8 hPa | 1.78 mm | - | 0 W/m² | - |
| 1778043291 | 7.78° C | 99% | 1009.8 hPa | 4.83 mm | - | 0 W/m² | - |
| 1778042988 | 7.78° C | 99% | 1009.9 hPa | 3.05 mm | - | 0 W/m² | - |
| 1778042687 | 7.78° C | 99% | 1009.8 hPa | 1.78 mm | - | 0 W/m² | - |
| 1778042383 | 7.78° C | 99% | 1009.9 hPa | 0 mm | - | 0 W/m² | - |
| 1778042080 | 7.78° C | 99% | 1009.7 hPa | 1.27 mm | - | 0 W/m² | - |
| 1778041778 | 7.78° C | 99% | 1009.5 hPa | 1.27 mm | - | 0 W/m² | - |
| 1778041477 | 7.78° C | 99% | 1009.2 hPa | 0 mm | - | 0 W/m² | - |
| 1778041175 | 7.78° C | 99% | 1008.9 hPa | 0 mm | - | 0 W/m² | - |
| 1778040872 | 7.78° C | 99% | 1008.9 hPa | 0 mm | - | 0 W/m² | - |
| 1778040569 | 8.33° C | 99% | 1009.1 hPa | 0 mm | - | 0 W/m² | - |
| 1778040267 | 7.78° C | 99% | 1009 hPa | 1.78 mm | - | 0 W/m² | - |
| 1778039963 | 8.33° C | 99% | 1008.7 hPa | 0 mm | - | 0 W/m² | - |
| 1778039661 | 8.33° C | 99% | 1008.6 hPa | 0 mm | - | 0 W/m² | - |
| 1778039357 | 8.33° C | 99% | 1008.6 hPa | 0 mm | - | 0 W/m² | - |
| 1778039054 | 8.33° C | 99% | 1008.8 hPa | 0 mm | - | 0 W/m² | - |
| 1778038751 | 8.33° C | 99% | 1008.4 hPa | 0 mm | - | 0 W/m² | - |
| 1778038449 | 8.33° C | 99% | 1008.7 hPa | 0 mm | - | 0 W/m² | - |
* Rain latest hour (hover to see other rain measurements)
** Current wind speed in m/s (hover to see current wind gust speed)